TimeEST,TemperatureF,Dew PointF,Humidity,Sea Level PressureIn,VisibilityMPH,Wind Direction,Wind SpeedMPH,Gust SpeedMPH,PrecipitationIn,Events,Conditions,WindDirDegrees,DateUTC
12:15 AM,37.6,32.7,83,30.30,10.0,Calm,Calm,-,N/A,,Clear,0,2013-12-14 05:15:00
12:35 AM,37.9,33.4,84,30.29,10.0,Calm,Calm,-,N/A,,Clear,0,2013-12-14 05:35:00
12:55 AM,37.9,34.7,88,30.28,10.0,Calm,Calm,-,N/A,,Clear,0,2013-12-14 05:55:00
1:15 AM,38.8,34.7,85,30.28,10.0,Calm,Calm,-,N/A,,Scattered Clouds,0,2013-12-14 06:15:00
1:35 AM,39.4,35.4,86,30.28,10.0,Calm,Calm,-,N/A,,Mostly Cloudy,0,2013-12-14 06:35:00
1:55 AM,40.3,36.1,85,30.28,10.0,Calm,Calm,-,N/A,,Overcast,0,2013-12-14 06:55:00
2:15 AM,41.0,36.5,84,30.27,10.0,Calm,Calm,-,N/A,,Overcast,0,2013-12-14 07:15:00
2:35 AM,41.2,35.2,79,30.26,10.0,Calm,Calm,-,N/A,,Overcast,0,2013-12-14 07:35:00
2:55 AM,41.7,33.8,73,30.25,10.0,NNE,4.6,-,N/A,,Overcast,30,2013-12-14 07:55:00
3:15 AM,44.6,28.9,54,30.25,10.0,NE,5.8,-,N/A,,Overcast,40,2013-12-14 08:15:00
3:35 AM,43.9,31.5,62,30.25,10.0,ENE,4.6,-,N/A,,Overcast,60,2013-12-14 08:35:00
3:55 AM,43.9,30.4,59,30.25,10.0,ENE,4.6,-,N/A,,Overcast,60,2013-12-14 08:55:00
4:15 AM,43.7,30.2,59,30.24,10.0,NE,4.6,-,N/A,,Overcast,50,2013-12-14 09:15:00
4:35 AM,44.4,28.6,54,30.25,10.0,NE,4.6,-,N/A,,Overcast,50,2013-12-14 09:35:00
4:55 AM,44.6,28.0,52,30.25,10.0,NNE,3.5,-,N/A,,Overcast,30,2013-12-14 09:55:00
5:15 AM,44.6,28.8,54,30.24,10.0,Calm,Calm,-,N/A,,Overcast,0,2013-12-14 10:15:00
5:35 AM,45.0,28.8,53,30.24,10.0,NE,4.6,-,N/A,,Light Drizzle,40,2013-12-14 10:35:00
5:55 AM,45.5,29.1,53,30.24,10.0,NNE,3.5,-,N/A,,Overcast,30,2013-12-14 10:55:00
6:15 AM,45.5,29.5,54,30.22,10.0,NE,6.9,-,N/A,,Mostly Cloudy,40,2013-12-14 11:15:00
6:35 AM,45.5,30.7,56,30.22,10.0,NE,5.8,-,N/A,,Mostly Cloudy,50,2013-12-14 11:35:00
6:55 AM,45.7,32.0,59,30.23,10.0,NE,4.6,-,N/A,,Overcast,40,2013-12-14 11:55:00
7:15 AM,46.0,32.5,59,30.23,10.0,NE,4.6,-,N/A,,Overcast,50,2013-12-14 12:15:00
7:35 AM,46.8,33.6,60,30.22,10.0,NE,5.8,-,N/A,,Overcast,50,2013-12-14 12:35:00
7:55 AM,47.5,34.3,60,30.23,10.0,NE,5.8,-,N/A,,Overcast,40,2013-12-14 12:55:00
8:15 AM,47.7,35.2,62,30.21,10.0,NE,6.9,-,N/A,,Overcast,40,2013-12-14 13:15:00
8:35 AM,48.2,36.7,64,30.21,10.0,NE,9.2,-,N/A,,Overcast,50,2013-12-14 13:35:00
8:55 AM,49.3,38.3,66,30.21,10.0,ENE,8.1,-,N/A,,Overcast,60,2013-12-14 13:55:00
9:15 AM,49.6,39.4,68,30.20,10.0,ENE,6.9,-,N/A,,Overcast,70,2013-12-14 14:15:00
9:35 AM,50.2,41.7,73,30.21,10.0,ENE,5.8,-,N/A,,Light Drizzle,60,2013-12-14 14:35:00
9:55 AM,50.5,43.9,78,30.20,7.0,ENE,8.1,-,N/A,,Light Drizzle,70,2013-12-14 14:55:00
10:15 AM,50.0,45.7,85,30.18,7.0,ENE,8.1,-,N/A,Rain,Light Rain,70,2013-12-14 15:15:00
10:35 AM,51.1,46.4,84,30.16,10.0,ENE,10.4,-,N/A,,Overcast,70,2013-12-14 15:35:00
10:55 AM,51.3,47.1,86,30.15,10.0,ENE,6.9,-,N/A,,Drizzle,70,2013-12-14 15:55:00
11:15 AM,52.0,47.5,85,30.13,10.0,East,8.1,-,N/A,Rain,Rain,90,2013-12-14 16:15:00
11:35 AM,54.1,49.3,84,30.11,10.0,East,4.6,-,0.01,,Mostly Cloudy,80,2013-12-14 16:35:00
11:55 AM,55.9,50.2,81,30.08,10.0,East,4.6,-,0.01,,Scattered Clouds,90,2013-12-14 16:55:00
12:15 PM,58.1,51.4,78,30.06,10.0,East,6.9,-,N/A,,Clear,90,2013-12-14 17:15:00
12:35 PM,59.2,52.5,79,30.03,10.0,East,5.8,-,N/A,,Clear,80,2013-12-14 17:35:00
12:55 PM,62.2,54.0,74,30.00,10.0,East,6.9,-,N/A,,Scattered Clouds,100,2013-12-14 17:55:00
1:15 PM,63.5,55.4,75,29.97,10.0,ESE,5.8,-,N/A,,Overcast,120,2013-12-14 18:15:00
1:35 PM,64.9,56.5,74,29.95,10.0,SSE,6.9,-,N/A,,Overcast,150,2013-12-14 18:35:00
1:55 PM,68.0,57.2,68,29.95,10.0,SSE,11.5,23.0,N/A,,Overcast,150,2013-12-14 18:55:00
2:15 PM,68.0,57.7,70,29.92,10.0,SSE,15.0,23.0,N/A,Rain,Light Rain,150,2013-12-14 19:15:00
2:35 PM,68.0,57.9,70,29.90,10.0,SSE,13.8,23.0,N/A,,Mostly Cloudy,150,2013-12-14 19:35:00
2:55 PM,67.8,58.3,71,29.90,10.0,SSE,13.8,21.9,N/A,,Overcast,150,2013-12-14 19:55:00
3:15 PM,66.4,59.2,78,29.88,7.0,SSE,13.8,27.6,N/A,Rain,Light Rain,150,2013-12-14 20:15:00
3:35 PM,64.8,60.8,87,29.89,10.0,SSE,11.5,18.4,N/A,,Light Drizzle,160,2013-12-14 20:35:00
3:55 PM,64.4,61.0,89,29.87,10.0,South,9.2,-,N/A,Rain,Rain,170,2013-12-14 20:55:00
4:15 PM,63.9,61.3,91,29.86,5.0,SSE,11.5,-,N/A,,Heavy Drizzle,160,2013-12-14 21:15:00
4:35 PM,63.7,61.3,92,29.85,4.0,South,8.1,-,0.02,Rain,Rain,170,2013-12-14 21:35:00
4:55 PM,63.5,61.7,94,29.84,3.0,SSE,11.5,16.1,0.10,Rain,Heavy Rain,160,2013-12-14 21:55:00
5:15 PM,64.8,62.1,91,29.84,4.0,SSW,10.4,27.6,0.04,Rain,Rain,210,2013-12-14 22:15:00
5:35 PM,63.9,62.6,96,29.84,4.0,South,10.4,-,0.17,Rain,Heavy Rain,180,2013-12-14 22:35:00
5:55 PM,65.3,63.0,92,29.84,10.0,South,15.0,19.6,0.19,,Overcast,180,2013-12-14 22:55:00
6:15 PM,65.7,63.1,92,29.84,10.0,South,15.0,25.3,N/A,Rain,Light Rain,190,2013-12-14 23:15:00
6:35 PM,65.7,63.5,93,29.83,10.0,South,11.5,19.6,N/A,,Overcast,190,2013-12-14 23:35:00
6:55 PM,65.8,63.7,93,29.83,10.0,South,10.4,18.4,N/A,Rain,Light Rain,180,2013-12-14 23:55:00
7:15 PM,66.2,63.9,92,29.83,10.0,South,10.4,18.4,N/A,,Overcast,190,2013-12-15 00:15:00
7:35 PM,66.2,64.4,94,29.82,7.0,SSW,8.1,-,0.02,Rain,Light Rain,210,2013-12-15 00:35:00
7:55 PM,66.4,64.8,95,29.84,5.0,WSW,6.9,-,0.06,Rain,Rain,240,2013-12-15 00:55:00
8:15 PM,65.3,63.7,94,29.84,2.5,West,3.5,-,0.24,Rain,Rain,260,2013-12-15 01:15:00
8:35 PM,63.5,62.1,95,29.84,5.0,SW,3.5,-,0.30,Rain,Rain,220,2013-12-15 01:35:00
8:55 PM,63.1,61.9,96,29.83,5.0,SW,3.5,-,0.38,Rain,Heavy Rain,220,2013-12-15 01:55:00
9:15 PM,62.6,61.7,97,29.82,7.0,SSW,3.5,-,0.03,Rain,Rain,200,2013-12-15 02:15:00
9:35 PM,62.6,61.7,97,29.81,3.0,Calm,Calm,-,0.20,Rain,Rain,0,2013-12-15 02:35:00
9:55 PM,62.6,61.7,97,29.81,2.0,WSW,3.5,-,0.41,Rain,Heavy Rain,250,2013-12-15 02:55:00
10:15 PM,62.8,61.7,96,29.80,7.0,SW,4.6,-,0.15,Rain,Rain,230,2013-12-15 03:15:00
10:35 PM,62.8,61.7,96,29.80,7.0,SW,4.6,-,0.19,Rain,Rain,220,2013-12-15 03:35:00
10:55 PM,62.8,61.7,96,29.78,5.0,Calm,Calm,-,0.25,Rain,Light Rain,0,2013-12-15 03:55:00
11:15 PM,63.0,61.9,96,29.79,4.0,SW,5.8,-,0.08,Rain,Rain,230,2013-12-15 04:15:00
11:35 PM,63.1,62.1,96,29.78,4.0,SW,4.6,-,0.13,Rain,Rain,220,2013-12-15 04:35:00
11:55 PM,63.1,62.1,96,29.77,7.0,SW,3.5,-,0.15,Rain,Light Rain,220,2013-12-15 04:55:00